Powrót do katalogu

SL-8 DEB

AktywnyLEO
NORAD 27744·DEBRIS·🇷🇺 Russia

Wystrzelony Feb 12, 1991 z Plesetsk Cosmodrome

Loading…

Następne Przeloty (najbliższe 24 godziny)

TLE

ŚwieżeSource: Space-Track

Epoka: Sep 14, 2026, 09:42 UTC

1 27744U 91009CZ  26257.40425998 -.00000034  00000-0 -18068-3 0  9991
2 27744  74.0523 130.4274 0175455 184.9337 229.0460 12.18610051476487

Śledź SL-8 DEB w czasie rzeczywistym z AllMySat

Download on the App Store